MQC9203 HHAS-HDAM

Flight info

Callsign MQC9203
Flight time 0h 58m
Altitude 35000
Route DIGSA DCT EKBOR DCT GEREK DCT IBRAD A451 SB DCT MANDA MANDA1R
Aircraft B738/M-SDE2E3FGHIRWXY/LB1

Departure

Time 2026-05-05 19:59
Airport Asmara International Airport (HHAS)

Arrival

Time 2026-05-05 20:58
Airport Djibouti-Ambouli Airport (HDAM)
Time Latitude Longitude Altitude Speed Heading
2026-05-05 19:45 15.29437 38.90750 7451 ft 0 kts 279°
2026-05-05 19:54 15.29440 38.90726 7448 ft 7 kts 273°
2026-05-05 19:54 15.29396 38.90696 7448 ft 12 kts 192°
2026-05-05 19:54 15.29317 38.90744 7448 ft 18 kts 105°
2026-05-05 19:55 15.29211 38.90774 7446 ft 19 kts 187°
2026-05-05 19:55 15.29070 38.90752 7446 ft 22 kts 188°
2026-05-05 19:55 15.28921 38.90751 7446 ft 21 kts 166°
2026-05-05 19:55 15.28799 38.90816 7447 ft 21 kts 104°
2026-05-05 19:56 15.28827 38.90958 7448 ft 20 kts 75°
2026-05-05 19:56 15.28863 38.91094 7451 ft 19 kts 75°
2026-05-05 19:56 15.28900 38.91226 7448 ft 19 kts 74°
2026-05-05 19:56 15.28935 38.91353 7449 ft 18 kts 73°
2026-05-05 19:57 15.28971 38.91483 7448 ft 20 kts 74°
2026-05-05 19:57 15.28997 38.91582 7448 ft 23 kts 75°
2026-05-05 19:57 15.29059 38.91810 7447 ft 27 kts 74°
2026-05-05 19:57 15.29110 38.91999 7447 ft 28 kts 74°
2026-05-05 19:58 15.29154 38.92110 7445 ft 7 kts 149°
2026-05-05 19:58 15.29125 38.92072 7446 ft 10 kts 257°
2026-05-05 19:58 15.29069 38.91845 7447 ft 66 kts 254°
2026-05-05 19:58 15.28885 38.91167 7448 ft 128 kts 254°
2026-05-05 19:59 15.28586 38.90090 7448 ft 181 kts 252°
2026-05-05 19:59 15.28211 38.88762 7739 ft 203 kts 253°
2026-05-05 19:59 15.27830 38.87321 8335 ft 213 kts 242°
2026-05-05 19:59 15.26861 38.86112 8531 ft 229 kts 208°
2026-05-05 20:00 15.25315 38.85609 8683 ft 244 kts 178°
2026-05-05 20:00 15.23617 38.86036 8853 ft 264 kts 150°
2026-05-05 20:00 15.22256 38.87389 9242 ft 280 kts 123°
2026-05-05 20:00 15.21249 38.89114 10082 ft 282 kts 120°
2026-05-05 20:01 15.20253 38.90945 10351 ft 304 kts 119°
2026-05-05 20:01 15.19193 38.92937 10522 ft 327 kts 119°
2026-05-05 20:01 15.18065 38.95067 10758 ft 346 kts 119°
2026-05-05 20:01 15.16897 38.97271 11273 ft 352 kts 119°
2026-05-05 20:02 15.15712 38.99503 11946 ft 355 kts 119°
2026-05-05 20:02 15.14519 39.01743 12631 ft 357 kts 119°
2026-05-05 20:02 15.13310 39.04007 13268 ft 361 kts 119°
2026-05-05 20:02 15.12088 39.06297 13891 ft 365 kts 119°
2026-05-05 20:03 15.10851 39.08613 14462 ft 369 kts 119°
2026-05-05 20:03 15.09604 39.10946 15038 ft 372 kts 119°
2026-05-05 20:03 15.08345 39.13298 15587 ft 376 kts 119°
2026-05-05 20:03 15.07067 39.15684 16094 ft 382 kts 119°
2026-05-05 20:04 15.05772 39.18103 16583 ft 387 kts 119°
2026-05-05 20:04 15.04465 39.20543 17170 ft 390 kts 119°
2026-05-05 20:04 15.03143 39.23010 17673 ft 394 kts 119°
2026-05-05 20:04 15.01810 39.25499 18219 ft 397 kts 119°
2026-05-05 20:05 15.00464 39.28010 18684 ft 401 kts 119°
2026-05-05 20:05 14.99106 39.30543 19145 ft 404 kts 119°
2026-05-05 20:05 14.97739 39.33092 19607 ft 406 kts 119°
2026-05-05 20:05 14.96364 39.35654 20063 ft 409 kts 119°
2026-05-05 20:06 14.94980 39.38233 20543 ft 411 kts 119°
2026-05-05 20:06 14.93608 39.40789 20954 ft 414 kts 120°
2026-05-05 20:06 14.92207 39.43398 21404 ft 416 kts 119°
2026-05-05 20:06 14.90798 39.46021 21841 ft 418 kts 120°
2026-05-05 20:07 14.89379 39.48661 22224 ft 422 kts 120°
2026-05-05 20:07 14.87946 39.51328 22574 ft 425 kts 120°
2026-05-05 20:07 14.86506 39.54006 22978 ft 428 kts 120°
2026-05-05 20:07 14.85057 39.56700 23374 ft 430 kts 120°
2026-05-05 20:08 14.83603 39.59402 23746 ft 432 kts 120°
2026-05-05 20:08 14.82136 39.62125 24002 ft 435 kts 120°
2026-05-05 20:08 14.81140 39.63976 24191 ft 438 kts 120°
2026-05-05 20:08 14.79676 39.66695 24493 ft 440 kts 120°
2026-05-05 20:09 14.78186 39.69462 24778 ft 442 kts 120°
2026-05-05 20:09 14.76687 39.72243 25059 ft 445 kts 120°
2026-05-05 20:09 14.75176 39.75044 25348 ft 447 kts 120°
2026-05-05 20:09 14.73659 39.77856 25600 ft 449 kts 120°
2026-05-05 20:10 14.72132 39.80687 25875 ft 452 kts 120°
2026-05-05 20:10 14.70598 39.83528 26152 ft 454 kts 120°
2026-05-05 20:10 14.69055 39.86386 26413 ft 456 kts 120°
2026-05-05 20:10 14.67506 39.89253 26696 ft 458 kts 120°
2026-05-05 20:11 14.65948 39.92136 26955 ft 461 kts 120°
2026-05-05 20:11 14.64382 39.95034 27167 ft 463 kts 120°
2026-05-05 20:11 14.62807 39.97946 27418 ft 465 kts 120°
2026-05-05 20:11 14.61228 40.00866 27665 ft 467 kts 120°
2026-05-05 20:12 14.59639 40.03801 27891 ft 469 kts 120°
2026-05-05 20:12 14.58042 40.06751 28128 ft 472 kts 120°
2026-05-05 20:12 14.56437 40.09715 28330 ft 474 kts 120°
2026-05-05 20:12 14.54825 40.12691 28559 ft 476 kts 120°
2026-05-05 20:13 14.53210 40.15672 28788 ft 477 kts 120°
2026-05-05 20:13 14.51584 40.18671 28989 ft 480 kts 120°
2026-05-05 20:13 14.49952 40.21680 29186 ft 481 kts 120°
2026-05-05 20:13 14.48337 40.24657 29396 ft 483 kts 120°
2026-05-05 20:14 14.46694 40.27686 29580 ft 485 kts 120°
2026-05-05 20:14 14.45040 40.30733 29744 ft 487 kts 121°
2026-05-05 20:14 14.43379 40.33791 29934 ft 489 kts 121°
2026-05-05 20:14 14.41717 40.36849 30193 ft 488 kts 121°
2026-05-05 20:15 14.40031 40.39880 30482 ft 486 kts 122°
2026-05-05 20:15 14.38321 40.42876 30758 ft 485 kts 122°
2026-05-05 20:15 14.36596 40.45865 30995 ft 485 kts 122°
2026-05-05 20:15 14.34871 40.48850 31265 ft 484 kts 122°
2026-05-05 20:16 14.33158 40.51822 31595 ft 482 kts 122°
2026-05-05 20:16 14.31453 40.54787 31889 ft 480 kts 122°
2026-05-05 20:16 14.29751 40.57754 32143 ft 481 kts 122°
2026-05-05 20:16 14.28050 40.60722 32393 ft 481 kts 122°
2026-05-05 20:17 14.26353 40.63685 32674 ft 480 kts 122°
2026-05-05 20:17 14.24656 40.66646 32981 ft 479 kts 122°
2026-05-05 20:17 14.22966 40.69596 33270 ft 478 kts 122°
2026-05-05 20:17 14.21272 40.72549 33572 ft 478 kts 122°
2026-05-05 20:18 14.19584 40.75490 33861 ft 477 kts 122°
2026-05-05 20:18 14.17896 40.78433 34119 ft 476 kts 122°
2026-05-05 20:18 14.16210 40.81368 34380 ft 475 kts 122°
2026-05-05 20:18 14.14529 40.84294 34642 ft 474 kts 122°
2026-05-05 20:19 14.12871 40.87180 34867 ft 474 kts 122°
2026-05-05 20:19 14.11193 40.90099 35098 ft 474 kts 122°
2026-05-05 20:19 14.09516 40.93016 35376 ft 472 kts 122°
2026-05-05 20:19 14.07848 40.95918 35708 ft 469 kts 122°
2026-05-05 20:20 14.06186 40.98806 35970 ft 468 kts 122°
2026-05-05 20:20 14.04511 41.01688 36180 ft 468 kts 123°
2026-05-05 20:20 14.02780 41.04532 36377 ft 468 kts 124°
2026-05-05 20:20 14.01024 41.07343 36622 ft 467 kts 124°
2026-05-05 20:21 13.99258 41.10148 36874 ft 466 kts 124°
2026-05-05 20:21 13.95718 41.15787 36886 ft 470 kts 124°
2026-05-05 20:22 13.92205 41.21426 36880 ft 465 kts 124°
2026-05-05 20:22 13.88740 41.27006 36893 ft 461 kts 124°
2026-05-05 20:23 13.85290 41.32560 36890 ft 460 kts 124°
2026-05-05 20:23 13.81844 41.38102 36889 ft 458 kts 124°
2026-05-05 20:24 13.78409 41.43621 36890 ft 458 kts 124°
2026-05-05 20:24 13.74967 41.49147 36896 ft 459 kts 124°
2026-05-05 20:25 13.71515 41.54686 36883 ft 461 kts 124°
2026-05-05 20:25 13.68052 41.60241 36883 ft 462 kts 124°
2026-05-05 20:26 13.64585 41.65799 36893 ft 463 kts 124°
2026-05-05 20:26 13.61102 41.71376 36889 ft 464 kts 124°
2026-05-05 20:27 13.57637 41.76923 36888 ft 464 kts 124°
2026-05-05 20:27 13.54144 41.82511 36885 ft 465 kts 124°
2026-05-05 20:28 13.50643 41.88108 36886 ft 465 kts 124°
2026-05-05 20:28 13.47144 41.93700 36885 ft 466 kts 124°
2026-05-05 20:29 13.43639 41.99296 36874 ft 465 kts 124°
2026-05-05 20:29 13.40250 42.04958 36861 ft 465 kts 121°
2026-05-05 20:30 13.36996 42.10703 36862 ft 465 kts 121°
2026-05-05 20:30 13.33738 42.16433 36862 ft 464 kts 121°
2026-05-05 20:31 13.30463 42.22139 36857 ft 463 kts 121°
2026-05-05 20:31 13.27184 42.27828 36857 ft 463 kts 121°
2026-05-05 20:31 13.25538 42.30682 36503 ft 468 kts 121°
2026-05-05 20:32 13.23879 42.33556 36004 ft 467 kts 121°
2026-05-05 20:32 13.22229 42.36417 35388 ft 466 kts 122°
2026-05-05 20:32 13.20575 42.39283 34753 ft 467 kts 122°
2026-05-05 20:32 13.18915 42.42160 34079 ft 469 kts 122°
2026-05-05 20:33 13.17247 42.45048 33324 ft 472 kts 122°
2026-05-05 20:33 13.15575 42.47944 32686 ft 471 kts 122°
2026-05-05 20:33 13.13916 42.50817 32196 ft 466 kts 121°
2026-05-05 20:33 13.12271 42.53665 31699 ft 462 kts 122°
2026-05-05 20:34 13.10639 42.56489 31212 ft 458 kts 121°
2026-05-05 20:34 13.09014 42.59283 30743 ft 454 kts 123°
2026-05-05 20:34 13.07049 42.61787 30247 ft 449 kts 139°
2026-05-05 20:34 13.04623 42.63696 29790 ft 443 kts 150°
2026-05-05 20:35 13.01825 42.65047 29230 ft 438 kts 162°
2026-05-05 20:35 12.98935 42.65979 28748 ft 433 kts 163°
2026-05-05 20:35 12.96108 42.66864 28256 ft 429 kts 163°
2026-05-05 20:35 12.93227 42.67770 27768 ft 426 kts 163°
2026-05-05 20:36 12.90449 42.68657 27309 ft 422 kts 162°
2026-05-05 20:36 12.87660 42.69560 26855 ft 419 kts 162°
2026-05-05 20:36 12.84895 42.70463 26376 ft 416 kts 162°
2026-05-05 20:36 12.82154 42.71362 25924 ft 413 kts 162°
2026-05-05 20:37 12.79426 42.72259 25477 ft 410 kts 162°
2026-05-05 20:37 12.76717 42.73150 25012 ft 408 kts 161°
2026-05-05 20:37 12.74014 42.74038 24547 ft 407 kts 161°
2026-05-05 20:37 12.71324 42.74921 24082 ft 406 kts 161°
2026-05-05 20:38 12.68641 42.75802 23632 ft 404 kts 161°
2026-05-05 20:38 12.65964 42.76681 23118 ft 403 kts 161°
2026-05-05 20:38 12.63304 42.77553 22629 ft 400 kts 161°
2026-05-05 20:38 12.60661 42.78420 22151 ft 397 kts 161°
2026-05-05 20:39 12.58093 42.79419 21698 ft 393 kts 152°
2026-05-05 20:39 12.55729 42.80787 21309 ft 388 kts 148°
2026-05-05 20:39 12.53433 42.82227 20855 ft 386 kts 147°
2026-05-05 20:39 12.51159 42.83677 20416 ft 384 kts 147°
2026-05-05 20:40 12.48895 42.85110 19979 ft 382 kts 148°
2026-05-05 20:40 12.46636 42.86523 19518 ft 380 kts 148°
2026-05-05 20:40 12.44376 42.87922 19092 ft 379 kts 148°
2026-05-05 20:40 12.42113 42.89312 18635 ft 378 kts 148°
2026-05-05 20:41 12.39856 42.90693 18189 ft 378 kts 148°
2026-05-05 20:41 12.37603 42.92067 17694 ft 376 kts 148°
2026-05-05 20:41 12.35362 42.93432 17243 ft 374 kts 148°
2026-05-05 20:41 12.33133 42.94790 16803 ft 372 kts 148°
2026-05-05 20:42 12.30917 42.96139 16372 ft 370 kts 148°
2026-05-05 20:42 12.28714 42.97480 15937 ft 368 kts 148°
2026-05-05 20:42 12.26520 42.98815 15509 ft 366 kts 148°
2026-05-05 20:42 12.24338 43.00143 15065 ft 364 kts 148°
2026-05-05 20:43 12.22167 43.01464 14632 ft 363 kts 148°
2026-05-05 20:43 12.19998 43.02784 14177 ft 362 kts 147°
2026-05-05 20:43 12.17839 43.04097 13756 ft 360 kts 147°
2026-05-05 20:43 12.15688 43.05405 13290 ft 359 kts 147°
2026-05-05 20:44 12.13548 43.06707 12810 ft 357 kts 147°
2026-05-05 20:44 12.11445 43.07986 12383 ft 354 kts 147°
2026-05-05 20:44 12.09338 43.09267 11960 ft 351 kts 147°
2026-05-05 20:44 12.07251 43.10536 11548 ft 348 kts 146°
2026-05-05 20:45 12.03144 43.13030 10930 ft 335 kts 146°
2026-05-05 20:45 12.01172 43.14226 10768 ft 325 kts 146°
2026-05-05 20:45 11.99160 43.15200 10606 ft 320 kts 162°
2026-05-05 20:46 11.96953 43.15323 10445 ft 319 kts 184°
2026-05-05 20:46 11.94820 43.14664 10131 ft 324 kts 204°
2026-05-05 20:46 11.92982 43.13360 10012 ft 319 kts 214°
2026-05-05 20:46 11.91271 43.11943 9813 ft 314 kts 215°
2026-05-05 20:47 11.89615 43.10560 9777 ft 302 kts 215°
2026-05-05 20:47 11.87946 43.09188 9245 ft 310 kts 215°
2026-05-05 20:47 11.86260 43.07816 8874 ft 310 kts 215°
2026-05-05 20:47 11.84577 43.06449 8573 ft 308 kts 215°
2026-05-05 20:48 11.82899 43.05088 8269 ft 307 kts 216°
2026-05-05 20:48 11.81224 43.03731 7964 ft 307 kts 216°
2026-05-05 20:48 11.79552 43.02376 7647 ft 307 kts 216°
2026-05-05 20:48 11.77885 43.01025 7341 ft 305 kts 216°
2026-05-05 20:49 11.76226 42.99680 7036 ft 303 kts 217°
2026-05-05 20:49 11.74579 42.98344 6741 ft 302 kts 217°
2026-05-05 20:49 11.72964 42.97035 6449 ft 300 kts 217°
2026-05-05 20:49 11.71331 42.95712 6134 ft 299 kts 217°
2026-05-05 20:50 11.69706 42.94395 5880 ft 295 kts 217°
2026-05-05 20:50 11.68649 42.93537 5862 ft 281 kts 217°
2026-05-05 20:50 11.66667 42.91932 5707 ft 269 kts 217°
2026-05-05 20:50 11.65212 42.90770 5607 ft 261 kts 212°
2026-05-05 20:51 11.63562 42.90136 5404 ft 251 kts 182°
2026-05-05 20:51 11.61850 42.90082 5245 ft 245 kts 178°
2026-05-05 20:51 11.60147 42.90069 5011 ft 244 kts 178°
2026-05-05 20:51 11.58468 42.90053 4810 ft 238 kts 177°
2026-05-05 20:52 11.56862 42.90256 4546 ft 229 kts 152°
2026-05-05 20:52 11.55694 42.91242 4321 ft 213 kts 121°
2026-05-05 20:52 11.55116 42.92578 4076 ft 203 kts 100°
2026-05-05 20:52 11.55021 42.93978 3852 ft 195 kts 90°
2026-05-05 20:53 11.55007 42.95340 3619 ft 189 kts 90°
2026-05-05 20:53 11.54993 42.96636 3417 ft 176 kts 90°
2026-05-05 20:53 11.54978 42.97843 3222 ft 165 kts 91°
2026-05-05 20:53 11.54964 42.98970 3026 ft 154 kts 91°
2026-05-05 20:54 11.54949 43.00077 2837 ft 157 kts 91°
2026-05-05 20:54 11.54935 43.01185 2637 ft 156 kts 90°
2026-05-05 20:54 11.54921 43.02284 2390 ft 153 kts 91°
2026-05-05 20:54 11.54906 43.03360 2208 ft 156 kts 92°
2026-05-05 20:55 11.54891 43.04471 2000 ft 157 kts 92°
2026-05-05 20:55 11.54877 43.05580 1803 ft 156 kts 93°
2026-05-05 20:55 11.54862 43.06686 1609 ft 156 kts 91°
2026-05-05 20:55 11.54847 43.07795 1404 ft 156 kts 91°
2026-05-05 20:56 11.54832 43.08894 1186 ft 154 kts 91°
2026-05-05 20:56 11.54817 43.09974 967 ft 152 kts 91°
2026-05-05 20:56 11.54802 43.11053 767 ft 153 kts 91°
2026-05-05 20:56 11.54791 43.11790 618 ft 154 kts 91°
2026-05-05 20:57 11.54766 43.13254 381 ft 157 kts 92°
2026-05-05 20:57 11.54753 43.14320 147 ft 149 kts 91°
2026-05-05 20:57 11.54742 43.15349 51 ft 134 kts 90°
2026-05-05 20:57 11.54727 43.16143 41 ft 90 kts 89°
2026-05-05 20:58 11.54724 43.16507 37 ft 11 kts 97°
2026-05-05 20:58 11.54688 43.16532 37 ft 10 kts 183°
2026-05-05 20:58 11.54595 43.16515 38 ft 10 kts 192°
2026-05-05 20:58 11.54554 43.16464 39 ft 10 kts 263°
2026-05-05 20:59 11.54556 43.16417 38 ft 11 kts 272°
2026-05-05 20:59 11.54557 43.16328 40 ft 14 kts 270°
2026-05-05 20:59 11.54557 43.16212 41 ft 18 kts 271°
2026-05-05 20:59 11.54560 43.16068 42 ft 22 kts 271°
2026-05-05 21:00 11.54561 43.15900 44 ft 25 kts 270°
2026-05-05 21:00 11.54563 43.15725 46 ft 24 kts 271°
2026-05-05 21:00 11.54567 43.15561 47 ft 23 kts 271°
2026-05-05 21:00 11.54568 43.15402 49 ft 22 kts 270°
2026-05-05 21:01 11.54570 43.15251 50 ft 20 kts 270°
2026-05-05 21:01 11.54612 43.15148 51 ft 17 kts 343°
2026-05-05 21:01 11.54727 43.15144 52 ft 16 kts 360°
2026-05-05 21:01 11.54840 43.15146 52 ft 17 kts
2026-05-05 21:02 11.54966 43.15147 51 ft 18 kts 358°
2026-05-05 21:02 11.55005 43.15089 52 ft 11 kts 265°
2026-05-05 21:02 11.55007 43.15004 52 ft 12 kts 271°
2026-05-05 21:02 11.55008 43.14919 53 ft 12 kts 271°
2026-05-05 21:03 11.55009 43.14837 54 ft 11 kts 271°
2026-05-05 21:03 11.55062 43.14799 51 ft 10 kts 359°
2026-05-05 21:03 11.55110 43.14810 54 ft 4 kts 71°
2026-05-05 21:03 11.55102 43.14824 51 ft 2 kts 122°
2026-05-05 21:04 11.55092 43.14836 54 ft 0 kts 133°
2026-05-05 21:04 11.55091 43.14837 54 ft 0 kts 135°